0 HST 1 20580U 90037B 26140.69296433 .00004794 00000-0 15071-3 0 9990 2 20580 28.4746 268.4391 0001569 182.9963 177.0623 15.30432683784358 0 ISS (ZARYA) 1 25544U 98067A 26141.16510469 .00005835 00000-0 11282-3 0 9994 2 25544 51.6328 73.8715 0007529 81.3651 278.8190 15.49291753567565 0 CXO 1 25867U 99040B 26142.93065120 .00000519 00000-0 00000-0 0 9996 2 25867 55.8201 117.2945 7878376 310.4889 359.9500 0.37806180 17225